| time (UTC) | temp F | wind direction | speed MPH | gust MPH | rain 1hr in | rain 24hr in | rain mn in | humidity % | barometer mb |
| 20260507151629 | 48 | 360 | 8.0 | 18.0 | 0.00 | 0.00 | 0.00 | 53 | 1014.9 |
| 20260507151140 | 48 | 360 | 11.0 | 18.0 | 0.00 | 0.00 | 0.00 | 51 | 1015.0 |
| 20260507150630 | 48 | 360 | 10.0 | 17.0 | 0.00 | 0.00 | 0.00 | 52 | 1014.9 |
| 20260507150143 | 48 | 360 | 7.0 | 20.0 | 0.00 | 0.00 | 0.00 | 52 | 1014.8 |
| 20260507145700 | 47 | 360 | 12.0 | 20.0 | 0.00 | 0.00 | 0.00 | 52 | 1014.8 |
| 20260507145138 | 47 | 360 | 10.0 | 18.0 | 0.00 | 0.00 | 0.00 | 53 | 1014.9 |
| 20260507144701 | 47 | 360 | 10.0 | 18.0 | 0.00 | 0.00 | 0.00 | 52 | 1014.9 |
| 20260507144151 | 47 | 360 | 11.0 | 21.0 | 0.00 | 0.00 | 0.00 | 53 | 1014.9 |
| 20260507143640 | 47 | 360 | 11.0 | 22.0 | 0.00 | 0.00 | 0.00 | 53 | 1014.9 |
| 20260507143131 | 47 | 360 | 12.0 | 22.0 | 0.00 | 0.00 | 0.00 | 54 | 1015.0 |
| 20260507142651 | 47 | 360 | 10.0 | 20.0 | 0.00 | 0.00 | 0.00 | 53 | 1015.0 |
| 20260507142202 | 47 | 360 | 6.0 | 20.0 | 0.00 | 0.00 | 0.00 | 54 | 1015.1 |
| 20260507141636 | 47 | 360 | 9.0 | 18.0 | 0.00 | 0.00 | 0.00 | 53 | 1015.0 |
| 20260507141125 | 47 | 360 | 9.0 | 18.0 | 0.00 | 0.00 | 0.00 | 55 | 1015.1 |
| 20260507140635 | 46 | 360 | 9.0 | 18.0 | 0.00 | 0.00 | 0.00 | 55 | 1015.1 |
| 20260507140139 | 47 | 360 | 9.0 | 19.0 | 0.00 | 0.00 | 0.00 | 57 | 1015.1 |
| 20260507135646 | 46 | 360 | 11.0 | 19.0 | 0.00 | 0.00 | 0.00 | 55 | 1015.1 |
| 20260507135136 | 46 | 360 | 11.0 | 16.0 | 0.00 | 0.00 | 0.00 | 58 | 1015.1 |
| 20260507134630 | 46 | 360 | 11.0 | 14.0 | 0.00 | 0.00 | 0.00 | 58 | 1015.0 |
| 20260507134140 | 46 | 360 | 9.0 | 14.0 | 0.00 | 0.00 | 0.00 | 60 | 1015.0 |
| 20260507133631 | 46 | 360 | 8.0 | 13.0 | 0.00 | 0.00 | 0.00 | 62 | 1014.9 |
| 20260507133126 | 45 | 360 | 7.0 | 12.0 | 0.00 | 0.00 | 0.00 | 64 | 1015.0 |
| 20260507132646 | 45 | 360 | 8.0 | 15.0 | 0.00 | 0.00 | 0.00 | 65 | 1014.9 |
| 20260507132127 | 45 | 360 | 8.0 | 15.0 | 0.00 | 0.00 | 0.00 | 66 | 1014.9 |
| 20260507131626 | 45 | 360 | 5.0 | 12.0 | 0.00 | 0.00 | 0.00 | 67 | 1014.9 |
| 20260507131137 | 44 | 360 | 7.0 | 13.0 | 0.00 | 0.00 | 0.00 | 68 | 1014.8 |
| 20260507130648 | 44 | 360 | 8.0 | 13.0 | 0.00 | 0.00 | 0.00 | 69 | 1014.8 |
| 20260507130150 | 44 | 360 | 6.0 | 12.0 | 0.00 | 0.00 | 0.00 | 70 | 1014.8 |
| 20260507125641 | 44 | 360 | 4.0 | 12.0 | 0.00 | 0.00 | 0.00 | 71 | 1014.6 |
| 20260507125152 | 44 | 240 | 5.0 | 10.0 | 0.00 | 0.00 | 0.00 | 72 | 1014.6 |
| 20260507124626 | 43 | 360 | 5.0 | 10.0 | 0.00 | 0.00 | 0.00 | 72 | 1014.5 |
| 20260507124132 | 43 | 360 | 5.0 | 9.0 | 0.00 | 0.00 | 0.00 | 73 | 1014.5 |
| 20260507123712 | 43 | 219 | 6.0 | 11.0 | 0.00 | 0.00 | 0.00 | 73 | 1014.7 |
| 20260507123145 | 42 | 360 | 7.0 | 12.0 | 0.00 | 0.00 | 0.00 | 74 | 1014.5 |
| 20260507122656 | 42 | 238 | 6.0 | 13.0 | 0.00 | 0.00 | 0.00 | 75 | 1014.6 |
| 20260507122153 | 42 | 360 | 6.0 | 11.0 | 0.00 | 0.00 | 0.00 | 76 | 1014.6 |
| 20260507121628 | 42 | 360 | 8.0 | 12.0 | 0.00 | 0.00 | 0.00 | 76 | 1014.5 |
| 20260507121130 | 42 | 360 | 6.0 | 12.0 | 0.00 | 0.00 | 0.00 | 76 | 1014.5 |
| 20260507120701 | 42 | 360 | 7.0 | 12.0 | 0.00 | 0.00 | 0.00 | 76 | 1014.5 |
| 20260507120204 | 41 | 360 | 5.0 | 15.0 | 0.00 | 0.00 | 0.00 | 76 | 1014.5 |
| 20260507115634 | 41 | 360 | 7.0 | 15.0 | 0.00 | 0.00 | 0.00 | 76 | 1014.5 |
| 20260507115144 | 41 | 360 | 6.0 | 12.0 | 0.00 | 0.00 | 0.00 | 76 | 1014.5 |
| 20260507114639 | 41 | 360 | 6.0 | 12.0 | 0.00 | 0.00 | 0.00 | 76 | 1014.4 |
| 20260507114130 | 40 | 360 | 6.0 | 10.0 | 0.00 | 0.00 | 0.00 | 76 | 1014.3 |
| 20260507113637 | 40 | 360 | 5.0 | 11.0 | 0.00 | 0.00 | 0.00 | 76 | 1014.2 |
| 20260507113201 | 40 | 360 | 5.0 | 11.0 | 0.00 | 0.00 | 0.00 | 76 | 1014.2 |
| 20260507112651 | 40 | 225 | 4.0 | 10.0 | 0.00 | 0.00 | 0.00 | 76 | 1014.2 |
| 20260507112150 | 40 | 360 | 4.0 | 10.0 | 0.00 | 0.00 | 0.00 | 76 | 1014.2 |
| 20260507111644 | 39 | 360 | 4.0 | 7.0 | 0.00 | 0.00 | 0.00 | 76 | 1014.1 |
| 20260507111155 | 39 | 360 | 3.0 | 6.0 | 0.00 | 0.00 | 0.00 | 76 | 1013.9 |
| 20260507110641 | 39 | 360 | 3.0 | 6.0 | 0.00 | 0.00 | 0.00 | 76 | 1013.9 |
| 20260507110145 | 39 | 360 | 2.0 | 7.0 | 0.00 | 0.00 | 0.00 | 76 | 1013.8 |
| 20260507105635 | 39 | 360 | 4.0 | 7.0 | 0.00 | 0.00 | 0.00 | 76 | 1013.9 |
| 20260507105146 | 39 | 229 | 4.0 | 5.0 | 0.00 | 0.00 | 0.00 | 75 | 1013.8 |
| 20260507104629 | 39 | 360 | 3.0 | 5.0 | 0.00 | 0.00 | 0.00 | 75 | 1013.8 |
| 20260507104139 | 39 | 360 | 3.0 | 5.0 | 0.00 | 0.00 | 0.00 | 75 | 1013.7 |
| 20260507103625 | 39 | 360 | 2.0 | 5.0 | 0.00 | 0.00 | 0.00 | 75 | 1013.8 |
| 20260507103141 | 39 | 360 | 3.0 | 5.0 | 0.00 | 0.00 | 0.00 | 74 | 1013.6 |
| 20260507102702 | 39 | 230 | 3.0 | 5.0 | 0.00 | 0.00 | 0.00 | 74 | 1013.7 |
| 20260507102152 | 39 | 360 | 3.0 | 5.0 | 0.00 | 0.00 | 0.00 | 74 | 1013.7 |
| 20260507101627 | 39 | 360 | 3.0 | 4.0 | 0.00 | 0.00 | 0.00 | 73 | 1013.6 |
| 20260507101138 | 39 | 232 | 2.0 | 4.0 | 0.00 | 0.00 | 0.00 | 73 | 1013.7 |
| 20260507100629 | 39 | 360 | 2.0 | 3.0 | 0.00 | 0.00 | 0.00 | 73 | 1013.7 |
| 20260507100129 | 40 | 360 | 2.0 | 3.0 | 0.00 | 0.00 | 0.00 | 73 | 1013.5 |
| 20260507095638 | 40 | 360 | 2.0 | 3.0 | 0.00 | 0.00 | 0.00 | 72 | 1013.7 |
| 20260507095128 | 40 | 360 | 1.0 | 3.0 | 0.00 | 0.00 | 0.00 | 72 | 1013.7 |
| 20260507094652 | 40 | 360 | 0.0 | 2.0 | 0.00 | 0.00 | 0.00 | 71 | 1013.7 |
| 20260507094203 | 40 | 360 | 1.0 | 2.0 | 0.00 | 0.00 | 0.00 | 71 | 1013.6 |
| 20260507093633 | 40 | 231 | 1.0 | 3.0 | 0.00 | 0.00 | 0.00 | 71 | 1013.5 |
| 20260507093144 | 41 | 237 | 1.0 | 3.0 | 0.00 | 0.00 | 0.00 | 71 | 1013.5 |
| 20260507092635 | 41 | 360 | 1.0 | 3.0 | 0.00 | 0.00 | 0.00 | 70 | 1013.6 |
| 20260507092214 | 41 | 360 | 2.0 | 4.0 | 0.00 | 0.00 | 0.00 | 70 | 1013.6 |
| 20260507091626 | 41 | 360 | 2.0 | 4.0 | 0.00 | 0.00 | 0.00 | 70 | 1013.6 |
| 20260507091137 | 41 | 360 | 1.0 | 3.0 | 0.00 | 0.00 | 0.00 | 69 | 1013.7 |
| 20260507090636 | 41 | 250 | 1.0 | 4.0 | 0.00 | 0.00 | 0.00 | 69 | 1013.8 |
| 20260507090127 | 41 | 360 | 2.0 | 4.0 | 0.00 | 0.00 | 0.00 | 69 | 1013.8 |
| 20260507085638 | 41 | 360 | 2.0 | 3.0 | 0.00 | 0.00 | 0.00 | 69 | 1013.8 |
| 20260507085129 | 41 | 360 | 2.0 | 3.0 | 0.00 | 0.00 | 0.00 | 69 | 1013.8 |
| 20260507084652 | 41 | 360 | 2.0 | 3.0 | 0.00 | 0.00 | 0.00 | 69 | 1013.9 |
| 20260507084133 | 41 | 360 | 2.0 | 3.0 | 0.00 | 0.00 | 0.00 | 69 | 1013.8 |
| 20260507083653 | 41 | 360 | 1.0 | 3.0 | 0.00 | 0.00 | 0.00 | 69 | 1013.8 |
| 20260507083128 | 41 | 360 | 2.0 | 3.0 | 0.00 | 0.00 | 0.00 | 69 | 1013.9 |
| 20260507082639 | 41 | 360 | 2.0 | 3.0 | 0.00 | 0.00 | 0.00 | 70 | 1013.8 |
| 20260507082126 | 42 | 360 | 2.0 | 3.0 | 0.00 | 0.00 | 0.00 | 70 | 1013.9 |
| 20260507081642 | 42 | 273 | 2.0 | 4.0 | 0.00 | 0.00 | 0.00 | 69 | 1013.8 |
| 20260507081203 | 42 | 360 | 2.0 | 4.0 | 0.00 | 0.00 | 0.00 | 70 | 1013.9 |
| 20260507080651 | 42 | 360 | 1.0 | 2.0 | 0.00 | 0.00 | 0.00 | 70 | 1014.0 |
| 20260507080126 | 42 | 360 | 1.0 | 3.0 | 0.00 | 0.00 | 0.00 | 70 | 1014.0 |
| 20260507075637 | 42 | 360 | 2.0 | 3.0 | 0.00 | 0.00 | 0.00 | 70 | 1014.0 |
| 20260507075127 | 42 | 360 | 2.0 | 4.0 | 0.00 | 0.00 | 0.00 | 70 | 1014.1 |
| 20260507074638 | 42 | 360 | 2.0 | 4.0 | 0.00 | 0.00 | 0.00 | 70 | 1014.1 |
| 20260507074158 | 42 | 360 | 1.0 | 3.0 | 0.00 | 0.00 | 0.00 | 70 | 1014.1 |
| 20260507073627 | 42 | 360 | 2.0 | 4.0 | 0.00 | 0.00 | 0.00 | 69 | 1014.1 |
| 20260507073140 | 42 | 360 | 1.0 | 4.0 | 0.00 | 0.00 | 0.00 | 69 | 1014.0 |
| 20260507072631 | 42 | 360 | 2.0 | 4.0 | 0.00 | 0.00 | 0.00 | 69 | 1014.1 |
| 20260507072211 | 42 | 360 | 2.0 | 4.0 | 0.00 | 0.00 | 0.00 | 68 | 1014.0 |
| 20260507071640 | 42 | 360 | 2.0 | 4.0 | 0.00 | 0.00 | 0.00 | 68 | 1014.0 |
| 20260507071131 | 42 | 360 | 2.0 | 3.0 | 0.00 | 0.00 | 0.00 | 68 | 1014.0 |
| 20260507070642 | 43 | 360 | 2.0 | 6.0 | 0.00 | 0.00 | 0.00 | 68 | 1014.0 |
| 20260507070137 | 43 | 360 | 2.0 | 6.0 | 0.00 | 0.00 | 0.00 | 68 | 1014.0 |
| 20260507065627 | 43 | 300 | 2.0 | 4.0 | 0.00 | 0.00 | 0.00 | 67 | 1014.1 |
| 20260507065207 | 43 | 360 | 2.0 | 5.0 | 0.00 | 0.00 | 0.00 | 67 | 1014.1 |
| 20260507064641 | 43 | 273 | 3.0 | 5.0 | 0.00 | 0.00 | 0.00 | 67 | 1014.3 |
| 20260507064148 | 43 | 360 | 3.0 | 5.0 | 0.00 | 0.00 | 0.00 | 67 | 1014.3 |
| 20260507063638 | 44 | 360 | 2.0 | 8.0 | 0.00 | 0.00 | 0.00 | 67 | 1014.3 |
| 20260507063142 | 44 | 279 | 3.0 | 8.0 | 0.00 | 0.00 | 0.00 | 67 | 1014.3 |
| 20260507062633 | 44 | 360 | 4.0 | 8.0 | 0.00 | 0.00 | 0.00 | 66 | 1014.3 |
| 20260507062144 | 44 | 360 | 2.0 | 8.0 | 0.00 | 0.00 | 0.00 | 66 | 1014.2 |
| 20260507061639 | 44 | 360 | 3.0 | 9.0 | 0.00 | 0.00 | 0.00 | 66 | 1014.2 |
| 20260507061130 | 45 | 360 | 4.0 | 9.0 | 0.00 | 0.00 | 0.00 | 65 | 1014.2 |
| 20260507060641 | 45 | 360 | 3.0 | 8.0 | 0.00 | 0.00 | 0.00 | 65 | 1014.2 |
| 20260507060134 | 45 | 360 | 3.0 | 9.0 | 0.00 | 0.00 | 0.00 | 64 | 1014.1 |
| 20260507055624 | 46 | 360 | 4.0 | 10.0 | 0.00 | 0.00 | 0.00 | 63 | 1014.1 |
| 20260507055144 | 46 | 273 | 3.0 | 10.0 | 0.00 | 0.00 | 0.00 | 62 | 1014.2 |
| 20260507054639 | 46 | 360 | 6.0 | 10.0 | 0.00 | 0.00 | 0.00 | 62 | 1014.2 |
| 20260507054125 | 46 | 360 | 3.0 | 8.0 | 0.00 | 0.00 | 0.00 | 61 | 1014.2 |
| 20260507053636 | 46 | 360 | 4.0 | 8.0 | 0.00 | 0.00 | 0.00 | 61 | 1014.3 |
| 20260507053131 | 46 | 254 | 1.0 | 3.0 | 0.00 | 0.00 | 0.00 | 61 | 1014.3 |
| 20260507052638 | 46 | 360 | 1.0 | 3.0 | 0.00 | 0.00 | 0.00 | 61 | 1014.3 |
| 20260507052128 | 46 | 360 | 0.0 | 1.0 | 0.00 | 0.00 | 0.00 | 61 | 1014.2 |
| 20260507051632 | 46 | 360 | 0.0 | 1.0 | 0.00 | 0.00 | 0.00 | 61 | 1014.3 |
| 20260507051142 | 46 | 261 | 0.0 | 1.0 | 0.00 | 0.00 | 0.00 | 61 | 1014.3 |
| 20260507050652 | 46 | 360 | 0.0 | 2.0 | 0.00 | 0.00 | 0.00 | 60 | 1014.3 |
| 20260507050155 | 46 | 360 | 0.0 | 2.0 | 0.00 | 0.00 | 0.00 | 60 | 1014.3 |
| 20260507045624 | 46 | 360 | 1.0 | 2.0 | 0.00 | 0.00 | 0.00 | 60 | 1014.3 |
| 20260507045130 | 46 | 267 | 0.0 | 2.0 | 0.00 | 0.00 | 0.00 | 61 | 1014.4 |
| 20260507044625 | 46 | 273 | 0.0 | 2.0 | 0.00 | 0.00 | 0.00 | 60 | 1014.4 |
| 20260507044136 | 46 | 273 | 0.0 | 2.0 | 0.00 | 0.00 | 0.00 | 60 | 1014.3 |
| 20260507043625 | 46 | 273 | 0.0 | 1.0 | 0.00 | 0.00 | 0.00 | 60 | 1014.3 |
| 20260507043150 | 46 | 360 | 0.0 | 1.0 | 0.00 | 0.00 | 0.00 | 60 | 1014.3 |
| 20260507042641 | 46 | 270 | 0.0 | 1.0 | 0.00 | 0.00 | 0.00 | 60 | 1014.4 |
| 20260507042131 | 46 | 269 | 0.0 | 2.0 | 0.00 | 0.00 | 0.00 | 59 | 1014.4 |
| 20260507041712 | 46 | 360 | 0.0 | 2.0 | 0.00 | 0.00 | 0.00 | 59 | 1014.5 |
| 20260507041128 | 46 | 360 | 0.0 | 1.0 | 0.00 | 0.00 | 0.00 | 59 | 1014.4 |
| 20260507040647 | 46 | 360 | 0.0 | 1.0 | 0.00 | 0.00 | 0.00 | 59 | 1014.4 |
| 20260507040143 | 46 | 360 | 1.0 | 1.0 | 0.00 | 0.00 | 0.00 | 58 | 1014.4 |
| 20260507035633 | 46 | 360 | 0.0 | 1.0 | 0.00 | 0.00 | 0.00 | 58 | 1014.5 |
| 20260507035125 | 46 | 360 | 0.0 | 1.0 | 0.00 | 0.00 | 0.00 | 58 | 1014.5 |
| 20260507034710 | 46 | 275 | 0.0 | 1.0 | 0.00 | 0.00 | 0.00 | 58 | 1014.5 |
| 20260507034137 | 46 | 360 | 0.0 | 1.0 | 0.00 | 0.00 | 0.00 | 57 | 1014.4 |
| 20260507033706 | 46 | 273 | 0.0 | 1.0 | 0.00 | 0.00 | 0.00 | 56 | 1014.4 |
| 20260507033139 | 47 | 360 | 0.0 | 2.0 | 0.00 | 0.00 | 0.00 | 56 | 1014.5 |
| 20260507032630 | 47 | 271 | 0.0 | 2.0 | 0.00 | 0.00 | 0.00 | 56 | 1014.5 |
| 20260507032141 | 47 | 360 | 0.0 | 2.0 | 0.00 | 0.00 | 0.00 | 56 | 1014.5 |
| 20260507031645 | 47 | 273 | 0.0 | 2.0 | 0.00 | 0.00 | 0.00 | 55 | 1014.5 |
| 20260507031156 | 47 | 360 | 0.0 | 1.0 | 0.00 | 0.00 | 0.00 | 54 | 1014.5 |
| 20260507030642 | 48 | 360 | 0.0 | 3.0 | 0.00 | 0.00 | 0.00 | 54 | 1014.5 |
| 20260507030206 | 48 | 360 | 1.0 | 4.0 | 0.00 | 0.00 | 0.00 | 53 | 1014.6 |
| 20260507025636 | 48 | 360 | 1.0 | 4.0 | 0.00 | 0.00 | 0.00 | 53 | 1014.5 |
| 20260507025126 | 48 | 360 | 1.0 | 4.0 | 0.00 | 0.00 | 0.00 | 53 | 1014.5 |
| 20260507024641 | 48 | 360 | 1.0 | 7.0 | 0.00 | 0.00 | 0.00 | 53 | 1014.5 |
| 20260507024152 | 48 | 360 | 2.0 | 6.0 | 0.00 | 0.00 | 0.00 | 53 | 1014.5 |
| 20260507023647 | 48 | 360 | 1.0 | 3.0 | 0.00 | 0.00 | 0.00 | 53 | 1014.4 |
| 20260507023142 | 49 | 360 | 0.0 | 5.0 | 0.00 | 0.00 | 0.00 | 53 | 1014.4 |
| 20260507022633 | 49 | 360 | 1.0 | 5.0 | 0.00 | 0.00 | 0.00 | 52 | 1014.5 |
| 20260507022203 | 49 | 360 | 0.0 | 4.0 | 0.00 | 0.00 | 0.00 | 52 | 1014.3 |
| 20260507021645 | 49 | 360 | 0.0 | 4.0 | 0.00 | 0.00 | 0.00 | 52 | 1014.2 |
| 20260507021135 | 49 | 360 | 1.0 | 8.0 | 0.00 | 0.00 | 0.00 | 52 | 1014.3 |
| 20260507020646 | 49 | 360 | 3.0 | 8.0 | 0.00 | 0.00 | 0.00 | 51 | 1014.2 |
| 20260507020137 | 49 | 360 | 2.0 | 5.0 | 0.00 | 0.00 | 0.00 | 51 | 1014.2 |
| 20260507015627 | 49 | 360 | 2.0 | 4.0 | 0.00 | 0.00 | 0.00 | 51 | 1014.1 |
| 20260507015158 | 49 | 360 | 2.0 | 5.0 | 0.00 | 0.00 | 0.00 | 51 | 1014.1 |
| 20260507014641 | 49 | 360 | 3.0 | 5.0 | 0.00 | 0.00 | 0.00 | 51 | 1014.0 |
| 20260507014130 | 49 | 360 | 2.0 | 4.0 | 0.00 | 0.00 | 0.00 | 51 | 1014.0 |
| 20260507013641 | 49 | 360 | 3.0 | 6.0 | 0.00 | 0.00 | 0.00 | 51 | 1013.9 |
| 20260507013136 | 49 | 360 | 3.0 | 6.0 | 0.00 | 0.00 | 0.00 | 50 | 1014.0 |
| 20260507012626 | 49 | 360 | 3.0 | 5.0 | 0.00 | 0.00 | 0.00 | 50 | 1014.0 |
| 20260507012202 | 50 | 360 | 2.0 | 6.0 | 0.00 | 0.00 | 0.00 | 50 | 1014.0 |
| 20260507011636 | 50 | 360 | 2.0 | 6.0 | 0.00 | 0.00 | 0.00 | 50 | 1013.9 |
| 20260507011126 | 50 | 360 | 3.0 | 8.0 | 0.00 | 0.00 | 0.00 | 49 | 1013.9 |
| 20260507010657 | 50 | 360 | 3.0 | 8.0 | 0.00 | 0.00 | 0.00 | 49 | 1013.9 |
| 20260507010140 | 50 | 360 | 2.0 | 8.0 | 0.00 | 0.00 | 0.00 | 49 | 1013.9 |
| 20260507005650 | 50 | 360 | 2.0 | 9.0 | 0.00 | 0.00 | 0.00 | 49 | 1013.9 |
| 20260507005156 | 50 | 224 | 5.0 | 9.0 | 0.00 | 0.00 | 0.00 | 48 | 1013.8 |
| 20260507004630 | 50 | 360 | 4.0 | 8.0 | 0.00 | 0.00 | 0.00 | 48 | 1013.9 |
| 20260507004150 | 50 | 360 | 4.0 | 9.0 | 0.00 | 0.00 | 0.00 | 48 | 1013.8 |
| 20260507003631 | 50 | 360 | 5.0 | 9.0 | 0.00 | 0.00 | 0.00 | 48 | 1013.9 |
| 20260507003156 | 50 | 360 | 5.0 | 9.0 | 0.00 | 0.00 | 0.00 | 48 | 1013.9 |
| 20260507002644 | 51 | 360 | 4.0 | 9.0 | 0.00 | 0.00 | 0.00 | 48 | 1013.8 |
| 20260507002135 | 51 | 360 | 2.0 | 4.0 | 0.00 | 0.00 | 0.00 | 48 | 1013.8 |
| 20260507001626 | 51 | 360 | 2.0 | 5.0 | 0.00 | 0.00 | 0.00 | 47 | 1013.7 |
| 20260507001202 | 51 | 360 | 3.0 | 5.0 | 0.00 | 0.00 | 0.00 | 46 | 1013.6 |
| 20260507000652 | 51 | 360 | 1.0 | 8.0 | 0.00 | 0.00 | 0.00 | 47 | 1013.5 |
| 20260507000134 | 51 | 360 | 2.0 | 5.0 | 0.00 | 0.00 | 0.00 | 47 | 1013.5 |
| 20260506235645 | 51 | 360 | 2.0 | 6.0 | 0.00 | 0.00 | 0.00 | 46 | 1013.6 |
| 20260506235135 | 51 | 360 | 3.0 | 9.0 | 0.00 | 0.00 | 0.00 | 46 | 1013.7 |
| 20260506234627 | 51 | 360 | 3.0 | 9.0 | 0.00 | 0.00 | 0.00 | 46 | 1013.6 |
| 20260506234158 | 51 | 360 | 3.0 | 11.0 | 0.00 | 0.00 | 0.00 | 45 | 1013.5 |
| 20260506233628 | 51 | 360 | 6.0 | 11.0 | 0.00 | 0.00 | 0.00 | 45 | 1013.5 |
| 20260506233132 | 52 | 360 | 4.0 | 11.0 | 0.00 | 0.00 | 0.00 | 45 | 1013.6 |
| 20260506232643 | 52 | 360 | 4.0 | 10.0 | 0.00 | 0.00 | 0.00 | 45 | 1013.6 |
| 20260506232154 | 52 | 360 | 4.0 | 9.0 | 0.00 | 0.00 | 0.00 | 44 | 1013.5 |
| 20260506231628 | 52 | 360 | 4.0 | 12.0 | 0.00 | 0.00 | 0.00 | 44 | 1013.5 |
| 20260506231144 | 52 | 360 | 7.0 | 12.0 | 0.00 | 0.00 | 0.00 | 44 | 1013.4 |
| 20260506230626 | 52 | 360 | 5.0 | 11.0 | 0.00 | 0.00 | 0.00 | 44 | 1013.5 |
| 20260506230129 | 52 | 360 | 4.0 | 12.0 | 0.00 | 0.00 | 0.00 | 44 | 1013.4 |
| 20260506225640 | 53 | 360 | 7.0 | 14.0 | 0.00 | 0.00 | 0.00 | 42 | 1013.5 |
| 20260506225130 | 53 | 360 | 7.0 | 14.0 | 0.00 | 0.00 | 0.00 | 42 | 1013.5 |
| 20260506224625 | 53 | 360 | 5.0 | 13.0 | 0.00 | 0.00 | 0.00 | 43 | 1013.5 |
| 20260506224136 | 53 | 360 | 6.0 | 13.0 | 0.00 | 0.00 | 0.00 | 43 | 1013.5 |
| 20260506223627 | 53 | 360 | 6.0 | 12.0 | 0.00 | 0.00 | 0.00 | 42 | 1013.4 |
| 20260506223147 | 54 | 360 | 5.0 | 12.0 | 0.00 | 0.00 | 0.00 | 42 | 1013.5 |
| 20260506222638 | 54 | 360 | 5.0 | 13.0 | 0.00 | 0.00 | 0.00 | 42 | 1013.6 |
| 20260506222128 | 54 | 360 | 8.0 | 14.0 | 0.00 | 0.00 | 0.00 | 41 | 1013.5 |
| 20260506221644 | 54 | 360 | 5.0 | 14.0 | 0.00 | 0.00 | 0.00 | 41 | 1013.5 |
| 20260506221134 | 54 | 360 | 6.0 | 14.0 | 0.00 | 0.00 | 0.00 | 41 | 1013.4 |
| 20260506220715 | 55 | 360 | 5.0 | 13.0 | 0.00 | 0.00 | 0.00 | 41 | 1013.4 |
| 20260506220128 | 54 | 360 | 4.0 | 13.0 | 0.00 | 0.00 | 0.00 | 41 | 1013.4 |
| 20260506215634 | 54 | 360 | 5.0 | 14.0 | 0.00 | 0.00 | 0.00 | 41 | 1013.4 |
| 20260506215125 | 54 | 360 | 6.0 | 15.0 | 0.00 | 0.00 | 0.00 | 43 | 1013.4 |
| 20260506214640 | 54 | 360 | 7.0 | 15.0 | 0.00 | 0.00 | 0.00 | 41 | 1013.4 |
| 20260506214131 | 54 | 360 | 5.0 | 9.0 | 0.00 | 0.00 | 0.00 | 41 | 1013.4 |
| 20260506213652 | 54 | 360 | 4.0 | 13.0 | 0.00 | 0.00 | 0.00 | 42 | 1013.4 |
| 20260506213146 | 54 | 360 | 8.0 | 13.0 | 0.00 | 0.00 | 0.00 | 42 | 1013.4 |
| 20260506212637 | 54 | 360 | 6.0 | 17.0 | 0.00 | 0.00 | 0.00 | 41 | 1013.4 |
| 20260506212126 | 54 | 360 | 10.0 | 17.0 | 0.00 | 0.00 | 0.00 | 41 | 1013.3 |
| 20260506211635 | 54 | 360 | 6.0 | 13.0 | 0.00 | 0.00 | 0.00 | 41 | 1013.4 |
| 20260506211154 | 54 | 360 | 6.0 | 13.0 | 0.00 | 0.00 | 0.00 | 40 | 1013.3 |
| 20260506210644 | 54 | 360 | 6.0 | 18.0 | 0.00 | 0.00 | 0.00 | 41 | 1013.3 |
| 20260506210139 | 53 | 360 | 6.0 | 12.0 | 0.00 | 0.00 | 0.00 | 42 | 1013.4 |
| 20260506205630 | 53 | 360 | 5.0 | 12.0 | 0.00 | 0.00 | 0.00 | 42 | 1013.4 |
| 20260506205141 | 53 | 360 | 5.0 | 13.0 | 0.00 | 0.00 | 0.00 | 41 | 1013.4 |
| 20260506204632 | 55 | 360 | 7.0 | 12.0 | 0.00 | 0.00 | 0.00 | 40 | 1013.4 |
| 20260506204143 | 54 | 360 | 5.0 | 18.0 | 0.00 | 0.00 | 0.00 | 41 | 1013.5 |
| 20260506203633 | 54 | 360 | 10.0 | 18.0 | 0.00 | 0.00 | 0.00 | 40 | 1013.4 |
| 20260506203135 | 54 | 360 | 9.0 | 15.0 | 0.00 | 0.00 | 0.00 | 40 | 1013.5 |
| 20260506202626 | 53 | 360 | 7.0 | 13.0 | 0.00 | 0.00 | 0.00 | 40 | 1013.5 |
| 20260506202137 | 53 | 360 | 4.0 | 11.0 | 0.00 | 0.00 | 0.00 | 40 | 1013.5 |
| 20260506201701 | 54 | 360 | 6.0 | 13.0 | 0.00 | 0.00 | 0.00 | 39 | 1013.5 |
| 20260506201124 | 55 | 360 | 8.0 | 13.0 | 0.00 | 0.00 | 0.00 | 39 | 1013.5 |
| 20260506200634 | 56 | 360 | 5.0 | 13.0 | 0.00 | 0.00 | 0.00 | 38 | 1013.5 |
| 20260506200129 | 55 | 360 | 4.0 | 15.0 | 0.00 | 0.00 | 0.00 | 40 | 1013.6 |
| 20260506195640 | 53 | 360 | 5.0 | 16.0 | 0.00 | 0.00 | 0.00 | 40 | 1013.5 |
| 20260506195129 | 54 | 360 | 8.0 | 16.0 | 0.00 | 0.00 | 0.00 | 38 | 1013.6 |
| 20260506194632 | 54 | 360 | 8.0 | 14.0 | 0.00 | 0.00 | 0.00 | 38 | 1013.8 |
| 20260506194142 | 53 | 360 | 6.0 | 22.0 | 0.00 | 0.00 | 0.00 | 40 | 1013.7 |
| 20260506193629 | 53 | 360 | 8.0 | 15.0 | 0.00 | 0.00 | 0.00 | 40 | 1013.8 |
| 20260506193213 | 53 | 360 | 5.0 | 15.0 | 0.00 | 0.00 | 0.00 | 40 | 1013.8 |
| 20260506192703 | 54 | 360 | 7.0 | 15.0 | 0.00 | 0.00 | 0.00 | 38 | 1013.9 |
| 20260506192153 | 54 | 360 | 7.0 | 17.0 | 0.00 | 0.00 | 0.00 | 40 | 1013.8 |
| 20260506191636 | 54 | 360 | 10.0 | 17.0 | 0.00 | 0.00 | 0.00 | 40 | 1013.8 |
| 20260506191146 | 54 | 360 | 3.0 | 12.0 | 0.00 | 0.00 | 0.00 | 40 | 1013.7 |
| 20260506190632 | 54 | 360 | 6.0 | 15.0 | 0.00 | 0.00 | 0.00 | 41 | 1013.6 |
| 20260506190126 | 55 | 360 | 7.0 | 18.0 | 0.00 | 0.00 | 0.00 | 41 | 1013.7 |
| 20260506185656 | 54 | 360 | 7.0 | 18.0 | 0.00 | 0.00 | 0.00 | 39 | 1013.7 |
| 20260506185125 | 54 | 360 | 6.0 | 19.0 | 0.00 | 0.00 | 0.00 | 41 | 1013.7 |
| 20260506184629 | 54 | 360 | 9.0 | 19.0 | 0.00 | 0.00 | 0.00 | 41 | 1013.8 |
| 20260506184139 | 54 | 360 | 7.0 | 17.0 | 0.00 | 0.00 | 0.00 | 41 | 1013.8 |
| 20260506183650 | 54 | 360 | 7.0 | 20.0 | 0.00 | 0.00 | 0.00 | 42 | 1013.7 |
| 20260506183149 | 53 | 360 | 5.0 | 16.0 | 0.00 | 0.00 | 0.00 | 42 | 1013.7 |
| 20260506182640 | 53 | 360 | 10.0 | 16.0 | 0.00 | 0.00 | 0.00 | 43 | 1013.7 |
| 20260506182150 | 53 | 360 | 8.0 | 13.0 | 0.00 | 0.00 | 0.00 | 41 | 1013.8 |
| 20260506181625 | 54 | 360 | 7.0 | 18.0 | 0.00 | 0.00 | 0.00 | 41 | 1013.7 |
| 20260506181133 | 53 | 360 | 10.0 | 18.0 | 0.00 | 0.00 | 0.00 | 42 | 1013.7 |
| 20260506180653 | 53 | 360 | 9.0 | 21.0 | 0.00 | 0.00 | 0.00 | 42 | 1013.7 |
| 20260506180128 | 53 | 360 | 10.0 | 21.0 | 0.00 | 0.00 | 0.00 | 42 | 1013.7 |
| 20260506175655 | 53 | 360 | 6.0 | 13.0 | 0.00 | 0.00 | 0.00 | 40 | 1013.5 |
| 20260506175152 | 53 | 300 | 7.0 | 13.0 | 0.00 | 0.00 | 0.00 | 42 | 1013.8 |
| 20260506174646 | 52 | 344 | 6.0 | 12.0 | 0.00 | 0.00 | 0.00 | 42 | 1013.7 |
| 20260506174156 | 53 | 360 | 6.0 | 11.0 | 0.00 | 0.00 | 0.00 | 43 | 1013.9 |
| 20260506173634 | 53 | 360 | 3.0 | 12.0 | 0.00 | 0.00 | 0.00 | 43 | 1013.8 |
| 20260506173145 | 52 | 360 | 3.0 | 14.0 | 0.00 | 0.00 | 0.00 | 45 | 1013.9 |
| 20260506172635 | 52 | 360 | 7.0 | 14.0 | 0.00 | 0.00 | 0.00 | 44 | 1013.9 |
| 20260506172126 | 52 | 360 | 6.0 | 14.0 | 0.00 | 0.00 | 0.00 | 43 | 1013.9 |
| 20260506171649 | 52 | 360 | 6.0 | 14.0 | 0.00 | 0.00 | 0.00 | 43 | 1013.9 |
| 20260506171138 | 52 | 360 | 4.0 | 16.0 | 0.00 | 0.00 | 0.00 | 44 | 1014.1 |
| 20260506170629 | 52 | 360 | 7.0 | 14.0 | 0.00 | 0.00 | 0.00 | 44 | 1014.1 |
| 20260506170139 | 52 | 360 | 2.0 | 9.0 | 0.00 | 0.00 | 0.00 | 45 | 1014.0 |
| 20260506165659 | 52 | 360 | 5.0 | 10.0 | 0.00 | 0.00 | 0.00 | 46 | 1014.1 |
| 20260506165128 | 52 | 360 | 5.0 | 15.0 | 0.00 | 0.00 | 0.00 | 46 | 1014.1 |
| 20260506164643 | 52 | 304 | 4.0 | 15.0 | 0.00 | 0.00 | 0.00 | 46 | 1014.1 |
| 20260506164133 | 51 | 360 | 5.0 | 11.0 | 0.00 | 0.00 | 0.00 | 45 | 1014.0 |
| 20260506163644 | 52 | 321 | 4.0 | 11.0 | 0.00 | 0.00 | 0.00 | 46 | 1014.1 |
| 20260506163147 | 52 | 292 | 5.0 | 9.0 | 0.00 | 0.00 | 0.00 | 46 | 1014.0 |
| 20260506162630 | 51 | 360 | 2.0 | 9.0 | 0.00 | 0.00 | 0.00 | 47 | 1014.0 |
| 20260506162146 | 51 | 318 | 4.0 | 11.0 | 0.00 | 0.00 | 0.00 | 47 | 1014.1 |
| 20260506161641 | 52 | 325 | 5.0 | 11.0 | 0.00 | 0.00 | 0.00 | 45 | 1014.1 |
| 20260506161128 | 52 | 338 | 3.0 | 9.0 | 0.00 | 0.00 | 0.00 | 46 | 1014.2 |
| 20260506160659 | 51 | 360 | 4.0 | 14.0 | 0.00 | 0.00 | 0.00 | 45 | 1014.2 |
| 20260506160142 | 52 | 209 | 8.0 | 14.0 | 0.00 | 0.00 | 0.00 | 46 | 1014.3 |
| 20260506155633 | 52 | 213 | 8.0 | 14.0 | 0.00 | 0.00 | 0.00 | 45 | 1014.4 |
| 20260506155143 | 51 | 360 | 2.0 | 11.0 | 0.00 | 0.00 | 0.00 | 46 | 1014.4 |
| 20260506154634 | 51 | 360 | 6.0 | 11.0 | 0.00 | 0.00 | 0.00 | 46 | 1014.3 |
| 20260506154125 | 51 | 242 | 3.0 | 9.0 | 0.00 | 0.00 | 0.00 | 47 | 1014.3 |
| 20260506153635 | 51 | 360 | 5.0 | 9.0 | 0.00 | 0.00 | 0.00 | 47 | 1014.2 |
| 20260506153129 | 51 | 360 | 2.0 | 11.0 | 0.00 | 0.00 | 0.00 | 47 | 1014.3 |
| 20260506152649 | 51 | 360 | 6.0 | 11.0 | 0.00 | 0.00 | 0.00 | 46 | 1014.3 |
| 20260506152139 | 50 | 26 | 3.0 | 10.0 | 0.00 | 0.00 | 0.00 | 47 | 1014.2 |